Weather Service Report


250 
ASUS43 KMPX 300010
RWRMN 
WEATHER ROUNDUP FOR MINNESOTA
NATIONAL WEATHER SERVICE TWIN CITIES/CHANHASSEN MN
700 PM CDT WED MAR 29 2017


NOTE: "FAIR" INDICATES FEW OR NO CLOUDS BELOW 12,000 FEET WITH NO
SIGNIFICANT WEATHER AND/OR OBSTRUCTIONS TO VISIBILITY. N/A MEANS
CURRENT SKY AND/OR WEATHER CONDITIONS ARE NOT AVAILABLE.

MNZ060>063-068>070-300100-
   Twin Cities Metro   
  
CITY           SKY/WX    TMP DP  RH WIND       PRES   REMARKS
TWIN CITIES    LGT RAIN  45  38  76 S9        30.16F                  
6HR MIN TEMP:  45; 6HR MAX TEMP:  50; 6HR PCP: TRACE;                

ST PAUL        CLOUDY    46  39  76 SE8       30.17S                  
CRYSTAL        LGT RAIN  47  35  63 SE7       30.15S                  
BLAINE         CLOUDY    48  37  66 SE3       30.16S                  
LAKEVILLE      DRIZZLE   41  41 100 E12       30.15S                  
EDEN PRAIRIE   LGT RAIN  45  40  82 E13       30.14F                  
6HR MIN TEMP:  45; 6HR MAX TEMP:  52; 6HR PCP:  0.01;                

SOUTH ST PAUL  CLOUDY    46  38  74 SE6       30.16S                  
LAKE ELMO      CLOUDY    46  37  71 S5        30.18R                  
$$
MNZ001>005-007-008-013>017-022>024-027-028-300100-
   Northwest Minnesota   
  
CITY           SKY/WX    TMP DP  RH WIND       PRES   REMARKS
BEMIDJI        CLOUDY    51  33  49 SE8       30.09S                  
HALLOCK        PTCLDY    55  48  76 S9        29.99F                  
ROSEAU         PTCLDY    55  39  54 S9        30.03S                  
WARROAD        PTCLDY    57  37  47 SW8       30.04S                  
THIEF RVR FALL CLEAR     55  39  54 S12       30.05S                  
CROOKSTON      CLEAR     55  41  58 S14       30.04S                  
FOSSTON        CLOUDY    54  36  50 S9        30.06S                  
DETROIT LAKES  CLOUDY    54  32  43 S12       30.09S                  
MOORHEAD       PTCLDY    55  36  47 S14G23    30.07S                  
PARK RAPIDS    PTCLDY    53  28  38 S10       30.09F                  
MAHNOMEN       FAIR      54  33  45 S13       30.06S                  
$$
MNZ006-009>011-018-025>026-300100-
   North Central Minnesota   
  
CITY           SKY/WX    TMP DP  RH WIND       PRES   REMARKS
BAUDETTE       CLEAR     55  30  38 S9        30.06F                  
FLAG ISLAND    PTCLDY    41  30  65 S12       30.04R                  
INTL FALLS     CLEAR     50  30  46 SE10      30.12S                  
6HR MIN TEMP:  47; 6HR MAX TEMP:  54;                                

WASKISH        PTCLDY    54  34  47 SE8       30.08F                  
BIG FORK       CLOUDY    48  34  57 SE8       30.13F                  
LONGVILLE      MOCLDY    48  32  53 SE5       30.13S                  
GRAND RAPIDS   CLOUDY    44  32  62 VRB5      30.17S                  
CRANE LAKE     CLOUDY    45  27  49 S3        30.19S                  
ORR            CLOUDY    45  27  49 CALM      30.14S                  
COOK           MOCLDY    43  28  56 SE7       30.17F                  
WALKER         FAIR      49  30  47 SE6       30.11S                  
$$
MNZ012-019>021-037-300100-
   Northeast Minnesota   
  
CITY           SKY/WX    TMP DP  RH WIND       PRES   REMARKS
DULUTH         CLOUDY    34  28  79 E9        30.20F WCI  27          
6HR MIN TEMP:  34; 6HR MAX TEMP:  39;                                

ELY            PTCLDY    37  25  60 SE9       30.20F                  
HIBBING        MOCLDY    39  28  64 SE9       30.17F                  
EVELETH        MOCLDY    40  22  48 E5        30.20S                  
DULUTH HARBOR  CLOUDY    36  32  87 NE20      30.25S                  
TWO HARBORS    MOCLDY    36  28  75 E12       30.21F                  
SILVER BAY     MOCLDY    34  27  75 NE9       30.23F WCI  26          
GRAND MARAIS     N/A     35  28  75 NE13G21   30.27F WCI  26          
G MARAIS ARPRT CLOUDY    30  18  59 NE7       30.23F WCI  23          
$$
MNZ029>031-032-039>041-046>048-054>057-064-300100-
   West Central Minnesota   
  
CITY           SKY/WX    TMP DP  RH WIND       PRES   REMARKS
FERGUS FALLS   MOCLDY    52  34  50 S16       30.12S                  
WHEATON        PTCLDY    52  36  54 SE15G23   30.11S                  
MORRIS         MOCLDY    48  37  66 S16       30.11S                  
ALEXANDRIA     CLOUDY    48  35  60 S13       30.13R                  
ELBOW LAKE     FAIR      49  36  61 S16       30.11S                  
WADENA         MOCLDY    50  34  53 SE13      30.11S                  
GLENWOOD       CLOUDY    46  36  66 SE12      30.14S                  
APPLETON       CLOUDY    48  37  66 SE13G18   30.12S                  
BENSON         CLOUDY    48  37  66 S12       30.15S                  
ORTONVILLE     CLOUDY    48  37  66 SE14      30.11R                  
MADISON        CLOUDY    48  41  76 SE14      30.12S                  
WILLMAR        FAIR      45  43  93 SE9       30.15F                  
$$
MNZ033>034-036-042>043-049>051-058-059-300100-
   Central Minnesota     
  
CITY           SKY/WX    TMP DP  RH WIND       PRES   REMARKS
ST CLOUD       CLOUDY    48  36  63 S6        30.15S                  
6HR MIN TEMP:  48; 6HR MAX TEMP:  52;                                

SAUK CENTRE    MOCLDY    47  36  66 SE9       30.14S                  
PAYNESVILLE    DRIZZLE   45  37  75 SE7       30.16S                  
AITKIN         CLOUDY    46  30  53 E6        30.15R                  
PINE RIVER     MOCLDY    48  34  57 SE8       30.16S                  
BRAINERD       MOCLDY    48  31  51 SE6       30.14F                  
STAPLES        CLOUDY    48  30  49 SE7       30.12S                  
LONG PRAIRIE   FAIR      46  36  66 SE9       30.14S                  
LITTLE FALLS   CLOUDY    46  32  57 SE6       30.15S                  
LITCHFIELD     DRIZZLE   45  43  93 E5        30.15F                  
BUFFALO        DRIZZLE   46  38  75 SE6       30.17S                  
MAPLE LAKE     DRIZZLE   47  40  78 SE3       30.17S                  
HUTCHINSON     DRIZZLE   44  42  93 E10       30.15F                  
$$
MNZ037-044-045-052-053-300100-
   East Central Minnesota   
  
CITY           SKY/WX    TMP DP  RH WIND       PRES   REMARKS
PRINCETON      CLOUDY    50  36  57 SE5       30.16S                  
MORA           CLOUDY    46  34  61 S3        30.18R                  
CAMBRIDGE      MOCLDY    52  36  54 CALM      30.15S                  
RUSH CITY      CLOUDY    47  34  60 S3        30.17S                  
MOOSE LAKE     CLOUDY    34  30  86 NE7       30.18S WCI  28          
CLOQUET        CLOUDY    34  28  80 E9G17     30.20S WCI  26          
MCGREGOR       CLOUDY    39  32  75 E10       30.17F                  
$$
MNZ071>073-080-081-089-090-097-098-300100-
   Southwest Minnesota   
  
CITY           SKY/WX    TMP DP  RH WIND       PRES   REMARKS
MONTEVIDEO     CLOUDY    43  41  93 S13       30.12F                  
GRANITE FALLS  DRIZZLE   45  41  86 E9        30.14F                  
CANBY          CLOUDY    45  39  80 SE12G18   30.12S                  
MARSHALL       LGT RAIN  42  39  89 E14       30.10S                  
REDWOOD FALLS  LGT RAIN  43  38  82 E13       30.11F                  
OLIVIA         DRIZZLE   43  37  81 E9        30.13S                  
PIPESTONE      DRIZZLE   39  36  87 E13G20    30.05S                  
WINDOM         LGT RAIN  39  37  93 E14G24    30.07S                  
WORTHINGTON    LGT RAIN  38  36  92 E22       30.04S                  
JACKSON        LGT RAIN  37  37 100 E17G24    30.06F                  
TRACY          RAIN      42  39  90 E12G24    30.09F                  
SLAYTON        DRIZZLE   38  37  94 E15       30.07S                  
$$
MNZ065>067-074>077-082>085-091>093-300100-
   South Central Minnesota  
  
CITY           SKY/WX    TMP DP  RH WIND       PRES   REMARKS
MANKATO        LGT RAIN  41  38  89 E15G21    30.12F                  
NEW ULM        LGT RAIN  43  39  87 E15       30.11F                  
ST JAMES       LGT RAIN  39  37  93 E20G26    30.11S                  
FAIRMONT       LGT RAIN  40  38  93 E20G26    30.07F                  
GLENCOE        RAIN      43  43 100 E12       30.14F                  
FARIBAULT      LGT RAIN  41  37  87 E15G26    30.14S                  
OWATONNA       RAIN      41  37  87 E20G25    30.12F                  
WASECA         LGT RAIN  39  36  87 E16       30.12F                  
ALBERT LEA     RAIN      39  37  93 E14       30.09S                  
$$
MNZ078>079-086>088-094>096-300100-
   Southeast Minnesota   
  
CITY           SKY/WX    TMP DP  RH WIND       PRES   REMARKS
ROCHESTER      RAIN      40  38  93 E18       30.12F FOG              
6HR MIN TEMP:  40; 6HR MAX TEMP:  45; 6HR PCP:  0.24;                

RED WING       LGT RAIN  43  39  87 SE8       30.17R                  
STANTON        LGT RAIN  43  39  86 E12       30.14S                  
DODGE CENTER   LGT RAIN  39  37  93 E17G29    30.12F                  
WINONA         LGT RAIN  41  39  93 E5        30.17S                  
AUSTIN         LGT RAIN  41  37  87 E14       30.09F                  
PRESTON        LGT RAIN  40  37  89 E16G22    30.13S                  
$$
ABBREVIATIONS USED IN REMARKS
   TC - TEMPERATURES IN CELSIUS
  WCI - WIND CHILL INDEX
   HX - HEAT INDEX
  VSB - VISIBILITY 
$$
  

Return to Home page


Western Regional Climate Center, wrcc@dri.edu